Location: Killam
(52.7910°N, 111.8608°W)
Time: 12:32:58
(UTC+00:00)

CUBEBUG 2 - Pass Details

Date: 09 March 2026
Orbit: 548 x 627 km, 97.9° (Epoch: 14 April)

Event Time Altitude Azimuth Distance (km) Brightness Sun altitude
Rises 10:48:56 0° 8° (N) 2,858 ? -27.8°
Reaches altitude 10° 10:51:13 10° 360° (N) 1,963 ? -27.5°
Enters shadow 10:53:00 22° 344° (NNW) 1,354 ? -27.3°
